Theta_e
307 308 310 313 316 316 317 317 318 318 319 320 319 319 319 320 321 322 323 324 325 325 322 322 321 321 319 318 319 320 320 321 322 320 319 321 322 324 328 332 334 331 333
309 310 309 313 315 316 316 317 318 318 320 319 320 321 320 320 322 322 323 323 324 325 323 321 321 320 318 318 319 320 319 320 322 318 317 315 321 325 328 330 330 330 333
307 307 310 311 314 315 315 317 318 320 321 320 320 318 318 318 318 319 321 321 323 325 324 323 321 320 318 317 318 320 321 319 322 322 319 314 314 321 326 327 327 330 330
309 308 309 310 313 314 316 318 319 321 322 321 319 316 316 315 317 318 320 321 324 325 325 324 322 320 319 317 319 321 321 321 319 321 322 322 324 317 315 324 326 329 329
308 308 309 312 312 315 316 318 320 321 320 320 319 318 316 317 318 318 319 321 322 325 326 325 322 321 319 318 320 320 321 321 320 320 321 322 321 324 322 315 319 325 327
308 308 310 311 311 314 317 318 319 319 320 319 319 317 316 317 317 318 319 319 320 323 324 326 325 322 320 319 320 321 321 322 323 323 322 320 319 319 322 318 319 319 323
307 308 309 310 310 314 316 317 318 318 319 319 319 318 318 317 318 319 319 321 321 322 322 324 322 321 320 320 321 321 321 323 324 323 322 321 323 323 323 322 318 318 322
308 309 310 310 312 315 316 317 317 317 318 319 319 319 319 319 319 319 320 320 321 322 323 324 322 322 321 321 321 321 322 322 322 322 322 323 324 327 327 323 319 316 319
307 308 310 310 312 315 316 316 316 316 318 319 319 319 320 319 318 320 321 321 322 324 323 324 324 323 322 322 321 322 322 323 321 323 323 324 324 325 323 323 324 319 315
308 309 310 310 312 315 316 316 316 316 319 320 320 321 321 321 320 321 321 321 322 322 322 323 324 323 322 322 322 321 321 321 321 322 321 322 321 323 324 322 323 325 321
308 310 311 311 312 313 314 316 315 316 318 319 320 321 322 322 321 322 322 322 322 323 322 323 323 322 321 322 322 323 323 321 320 320 321 320 321 321 324 323 325 325 323
309 310 310 309 310 311 312 315 315 316 318 318 320 321 321 321 320 322 322 323 323 324 323 323 322 322 322 323 323 323 323 322 320 321 321 321 321 322 324 325 325 325 325
308 308 308 309 310 310 311 313 315 316 317 318 320 320 320 320 319 321 323 323 323 323 323 323 323 323 322 322 323 322 321 320 321 321 321 321 321 322 323 325 325 326 325
309 309 308 309 310 311 312 313 314 316 316 318 319 319 320 320 320 320 321 323 324 324 324 324 325 325 323 322 322 321 320 321 321 321 322 322 322 322 324 324 325 325 324
308 309 309 309 308 309 312 314 315 315 315 317 318 319 320 321 321 321 322 323 325 326 326 325 325 326 324 322 322 322 321 321 322 322 322 322 321 319 320 324 323 323 321
309 310 310 310 309 310 312 314 314 314 315 315 318 319 320 321 322 322 321 320 323 325 326 325 325 325 323 305 311 318 322 322 322 321 321 320 318 315 312 312 312 319 320
310 310 311 311 311 311 313 313 314 314 315 314 318 320 320 321 322 322 318 319 318 321 323 323 324 322 318 304 305 312 323 322 323 322 322 322 321 320 319 310 310 311 311
311 312 312 312 312 312 313 314 313 315 315 314 317 319 320 320 321 320 318 316 315 317 319 321 321 320 314 302 303 308 324 323 324 324 323 322 321 318 319 318 318 317 317
312 313 314 312 312 312 313 314 312 314 315 314 315 319 319 319 319 319 316 314 314 314 316 318 320 316 312 300 302 316 323 323 323 323 323 322 321 304 304 317 316 313 310
313 313 313 311 311 313 313 313 312 313 314 315 316 318 318 319 319 318 314 314 314 314 315 314 316 311 314 299 302 316 323 322 322 322 321 310 318 301 303 315 315 313 310
312 313 313 311 311 313 314 312 312 313 315 317 316 317 318 319 319 317 316 314 314 313 313 312 312 315 316 309 301 306 323 323 322 321 320 321 303 301 300 304 315 313 309
311 313 312 311 311 314 315 313 311 315 315 316 316 315 316 320 318 318 316 314 313 311 311 311 310 310 311 305 298 301 308 312 322 321 322 318 300 298 297 303 299 296 303
312 313 313 310 311 313 315 313 313 313 315 315 315 314 315 317 318 317 316 314 312 311 310 311 311 310 307 305 299 299 299 304 319 321 314 300 295 296 298 297 295 298 310
312 313 312 309 310 312 315 315 313 314 314 313 313 312 313 313 317 318 318 316 313 312 311 310 311 311 309 306 305 309 308 302 308 303 303 299 298 297 300 301 302 310 311
312 313 312 311 311 313 314 315 313 313 313 313 312 312 313 314 315 318 317 318 318 315 314 314 312 311 310 309 302 306 311 312 305 301 301 301 301 302 301 302 305 307 307
312 313 313 312 312 313 314 314 313 313 313 311 310 310 312 313 315 316 313 297 304 302 300 301 311 315 304 297 295 294 296 295 293 303 304 303 303 303 302 302 304 307 305
Wind_Speed
4 5 8 13 15 12 12 11 9 7 4 2 3 1 2 2 3 2 3 4 3 4 5 3 3 4 4 4 5 3 4 2 3 3 2 3 1 2 4 3 2 2 3
3 3 9 10 13 15 12 9 8 7 5 2 2 2 1 3 2 2 3 4 4 4 4 4 4 5 4 5 5 4 3 2 3 3 2 2 2 3 2 3 3 2 3
8 7 8 10 12 13 12 10 8 8 5 4 2 1 1 1 2 2 2 2 3 3 4 4 4 5 4 5 4 4 4 3 1 2 4 3 2 3 2 2 3 4 3
5 8 10 10 12 10 7 8 8 7 5 5 2 2 2 1 1 1 2 3 2 3 3 3 4 5 4 5 4 3 2 3 4 1 3 2 3 3 3 2 3 5 6
8 11 12 13 9 9 8 7 7 6 5 4 3 2 2 1 1 1 4 2 2 2 2 3 4 5 4 5 6 4 3 2 3 2 2 2 3 2 3 3 2 4 4
9 10 11 11 9 6 7 7 7 5 5 4 3 4 4 2 1 2 2 3 2 1 1 3 4 4 4 5 4 4 4 4 4 2 3 2 3 1 3 3 3 5 2
9 14 16 13 10 9 8 6 7 5 5 5 4 4 4 3 1 2 2 3 2 1 0 3 4 3 4 5 5 5 4 4 3 4 3 2 4 3 3 5 3 2 2
7 13 12 12 12 10 9 7 7 6 6 5 4 3 3 2 0 2 1 1 1 1 1 3 4 5 5 5 4 3 3 3 3 6 4 3 3 3 3 3 5 4 3
9 11 10 10 10 10 9 9 7 5 6 5 4 3 2 2 1 2 1 0 1 1 2 4 4 5 6 6 5 4 4 4 3 5 6 5 3 4 3 4 3 3 3
9 10 10 10 8 8 7 7 6 7 6 5 4 3 3 2 1 2 3 3 2 2 3 3 4 4 5 5 5 4 5 6 3 4 6 5 3 4 4 4 3 2 3
12 12 10 8 8 7 7 7 6 6 6 5 3 3 2 2 3 3 2 3 3 4 3 4 5 6 5 6 7 7 7 8 7 5 6 6 5 4 5 3 3 4 5
10 11 11 9 8 8 7 7 6 6 6 5 4 3 4 3 3 3 3 3 3 3 4 5 7 7 6 7 8 7 5 7 7 7 8 8 5 6 6 4 5 5 4
9 8 8 10 10 8 7 7 6 6 6 5 5 4 4 4 2 4 3 3 4 4 4 6 7 7 7 8 7 6 7 6 5 7 7 6 9 7 5 6 7 6 6
11 10 8 9 8 9 9 7 6 6 6 5 5 5 5 4 3 4 3 4 4 4 5 6 7 8 8 8 8 8 9 8 7 6 6 6 8 9 7 7 8 7 7
12 13 12 10 8 8 7 6 6 7 6 6 6 5 5 4 4 4 4 4 4 4 5 8 6 7 8 7 8 8 8 8 8 7 7 6 8 9 6 5 5 8 5
13 13 12 12 11 12 11 8 8 8 7 6 6 5 5 5 4 4 3 4 4 5 6 7 9 6 5 11 11 11 8 8 8 8 8 9 12 12 14 13 11 9 7
14 16 16 15 13 13 12 10 9 7 8 7 5 6 5 5 4 4 5 5 4 4 6 5 5 6 6 12 12 11 8 7 8 9 8 8 7 8 7 9 11 9 10
14 13 12 12 12 10 11 8 7 9 9 7 7 6 5 6 5 4 5 5 3 4 4 6 5 5 4 9 12 11 10 8 8 8 8 7 6 5 6 7 6 4 4
17 16 15 14 11 13 12 11 8 8 9 9 8 7 7 6 7 6 5 3 5 3 3 3 6 7 4 7 10 10 9 9 8 7 7 5 5 5 10 6 8 7 5
11 14 14 11 14 13 14 13 11 10 11 10 10 8 7 8 8 8 6 3 3 4 5 5 3 7 6 6 9 9 7 9 6 5 5 6 5 6 6 5 5 7 4
16 12 14 16 15 13 15 14 12 13 12 10 9 8 7 8 7 7 4 5 5 5 5 6 4 5 5 6 8 11 7 8 6 6 4 3 5 5 5 5 3 3 7
13 15 14 14 13 16 16 15 15 13 9 10 10 9 8 6 6 8 5 5 7 6 5 5 4 3 3 5 5 9 7 9 8 7 5 4 5 4 6 5 8 11 9
16 16 15 14 12 16 16 16 13 13 12 11 10 9 9 7 8 7 7 5 5 5 5 4 4 3 2 3 6 8 10 9 5 4 6 9 7 6 4 4 10 10 6
15 15 15 15 15 15 16 15 15 15 14 13 10 8 10 7 7 5 6 6 6 4 5 5 4 3 2 2 2 3 5 8 6 7 5 5 5 4 5 5 5 4 6
13 15 17 16 17 16 15 12 16 16 14 13 10 10 8 10 8 7 6 7 6 8 7 5 6 6 4 5 7 7 5 4 6 8 4 2 2 3 3 3 4 4 5
12 13 13 12 14 16 15 14 17 17 16 12 9 9 8 8 7 7 4 7 3 11 9 11 9 5 4 11 14 11 9 13 15 3 3 4 4 5 6 5 5 4 5
Wind_Direction
235 184 155 153 147 146 136 141 149 172 157 167 202 213 236 254 258 244 261 270 262 230 199 194 180 179 174 176 167 145 165 146 143 118 78 48 16 180 150 137 130 168 122
204 135 129 143 155 145 146 144 158 170 178 166 195 158 207 250 254 255 276 280 280 221 198 183 191 174 155 160 165 149 135 118 159 134 99 84 34 59 62 107 98 151 106
183 139 136 138 142 144 150 157 164 173 166 173 110 56 321 310 341 354 310 307 313 208 190 194 189 166 158 162 158 155 151 127 107 148 131 132 160 124 66 141 113 131 108
121 139 134 139 144 154 140 147 158 169 164 147 127 152 191 245 245 263 279 305 295 215 210 206 177 162 152 154 168 176 160 127 142 120 60 89 144 160 137 81 125 115 125
145 147 145 145 143 144 155 151 160 158 144 144 148 155 188 220 278 313 290 322 305 242 190 183 174 162 157 159 171 154 161 127 133 134 138 71 51 80 113 120 149 97 118
131 132 134 139 136 135 139 148 158 150 144 143 149 171 158 144 32 308 306 345 315 326 272 179 175 168 157 160 165 145 155 172 149 142 118 132 135 153 118 117 119 109 94
151 149 152 152 147 151 155 160 150 150 157 146 174 161 154 148 11 298 296 17 21 17 310 166 159 156 155 150 147 151 164 185 161 137 115 144 132 141 118 110 82 112 108
166 160 159 153 155 158 162 156 153 159 152 168 183 150 169 108 307 300 358 48 52 40 251 158 155 149 136 140 145 136 137 138 127 107 119 131 121 133 116 118 135 112 86
161 152 159 158 153 161 169 162 163 153 164 186 150 168 140 111 2 12 50 38 25 92 151 160 140 132 131 146 149 138 126 133 122 118 107 110 127 95 99 110 137 110 113
149 153 164 162 160 169 158 159 169 165 178 173 168 155 172 121 154 78 60 41 21 72 102 124 114 113 121 131 122 111 122 117 108 105 118 109 94 106 108 126 127 104 118
163 166 165 168 161 154 152 174 167 161 176 174 163 141 132 98 105 97 68 50 43 54 76 105 114 117 120 117 114 123 121 119 115 106 120 118 132 126 131 121 111 106 95
160 163 166 153 156 163 158 184 175 176 187 176 148 146 117 101 101 118 85 52 68 87 113 121 121 124 123 118 126 127 121 132 133 116 121 129 116 121 129 124 113 108 109
154 151 154 162 168 168 171 183 182 185 178 172 148 148 123 115 117 105 95 87 57 81 92 101 110 115 120 125 127 123 118 118 111 117 126 127 124 128 125 120 124 119 118
164 164 165 170 169 173 176 183 185 173 166 169 154 158 146 140 145 113 107 107 91 93 89 101 115 119 117 123 127 122 126 118 109 103 109 123 139 141 128 120 128 128 124
173 176 175 173 168 163 174 183 174 165 162 167 158 174 148 141 149 115 106 94 89 82 97 111 104 116 120 126 119 114 109 111 114 115 114 121 118 103 101 114 113 117 105
185 178 176 171 175 176 181 183 174 171 158 172 171 163 149 141 158 133 114 106 86 86 93 110 118 111 107 125 121 128 117 112 116 113 111 112 104 99 93 88 73 99 117
180 182 183 180 180 179 175 183 179 154 167 168 167 165 158 144 151 135 110 100 89 101 100 99 115 117 123 125 118 109 116 114 113 112 119 108 102 98 97 86 84 89 95
185 183 180 179 182 168 171 162 148 165 169 169 169 163 163 145 146 128 113 109 97 98 94 101 97 103 106 128 122 119 118 111 111 107 108 114 103 85 100 96 86 93 102
184 186 177 174 164 163 162 164 155 164 166 180 173 174 162 152 149 148 144 116 115 106 98 100 104 105 115 141 128 114 113 118 117 120 120 121 105 86 75 94 114 111 84
172 166 167 156 165 166 158 162 174 167 180 182 182 171 164 159 161 155 155 126 120 115 114 101 96 110 129 129 141 131 127 122 133 118 115 119 115 98 77 105 136 112 116
166 150 159 168 173 159 160 169 173 188 188 174 169 160 165 165 159 150 146 134 127 113 106 105 95 120 138 146 139 149 152 149 151 151 155 150 129 131 145 118 124 105 131
150 161 164 171 166 163 166 170 184 185 158 158 166 167 160 165 151 153 137 134 135 127 125 117 104 99 125 148 188 161 139 149 153 165 163 142 157 179 180 163 124 127 117
170 168 167 161 167 170 175 178 181 160 156 159 167 169 159 158 157 152 150 138 141 142 146 146 135 137 123 102 149 172 143 141 140 154 158 145 151 146 148 172 154 149 135
168 164 155 164 170 179 182 182 161 163 162 168 169 161 165 155 157 154 163 157 160 154 154 157 163 154 150 145 137 137 128 112 98 107 98 101 105 80 111 114 152 147 145
162 167 172 176 181 174 176 165 162 160 166 167 165 168 170 170 166 171 173 178 187 177 170 184 170 163 182 204 177 160 160 154 128 113 105 118 130 148 144 130 153 150 154
164 169 175 168 167 170 172 164 165 165 161 162 165 172 167 174 172 169 147 55 170 189 196 167 165 203 201 161 176 181 158 139 147 110 153 178 187 187 183 179 166 172 178